Morristown, NJ

5:36 PM EDT on October 20, 2017 (GMT -0400)
Morristown Municipal

Weather History for KMMU - August, 2014

Change the Weather History Date:

Friday, August 29, 2014

  Actual Average Record
Temperature  
Mean Temperature 64 °F -  
Max Temperature 78 °F 83 °F 102 °F (1953)
Min Temperature 50 °F 60 °F 39 °F (1935)
Degree Days  
Heating Degree Days 1    
Growing Degree Days 14 (Base 50)    
Moisture  
Dew Point 50 °F    
Average Humidity 72    
Maximum Humidity 94    
Minimum Humidity 34    
Precipitation  
Precipitation 0.00 in - - ()
Sea Level Pressure  
Sea Level Pressure 30.16 in    
Wind  
Wind Speed 1 mph (ESE)    
Max Wind Speed 7 mph    
Max Gust Speed -    
Visibility 10 miles    
Events      
Averages and records for this station are not official NWS values.
T = Trace of Precipitation, MM = Missing Value Source: NWS Daily Summary

Daily Weather History Graph

Daily Weather History Graph

Search for Another Location

Airport or City:

Trip Planner

Search our weather history database for the weather conditions in past years. The results will help you decide how hot, cold, wet, or windy it might be!

Date:

Astronomy

Aug. 29, 2014 Rise Set
Actual Time 6:21 AM EDT 7:34 PM EDT
Civil Twilight 5:53 AM EDT 8:03 PM EDT
Nautical Twilight 5:19 AM EDT 8:36 PM EDT
Astronomical Twilight 4:43 AM EDT 9:12 PM EDT
Moon 10:10 AM EDT (8/29) 9:29 PM EDT (8/29)
Length of Visible Light 14h 09m
Length of Day
13h 13m
Waxing Crescent, 15% of the Moon is Illuminated
Aug 29
Waxing Crescent
Sep 2
First Quarter
Sep 8
Full
Sep 15
Last Quarter
Sep 24
New

Hourly Weather History & Observations

Time (EDT) Temp. Dew Point Humidity Pressure Visibility Wind Dir Wind Speed Gust Speed Precip Events Conditions
12:15 AM 59.0 °F 48.2 °F 67% 30.08 in 10.0 mi Calm Calm - N/A   Clear
12:35 AM 55.4 °F 50.0 °F 82% 30.08 in 10.0 mi Calm Calm - N/A   Clear
12:55 AM 55.4 °F 50.0 °F 82% 30.09 in 10.0 mi Calm Calm - N/A   Clear
1:15 AM 55.4 °F 50.0 °F 82% 30.09 in 10.0 mi Calm Calm - N/A   Clear
1:35 AM 53.6 °F 48.2 °F 82% 30.09 in 10.0 mi Calm Calm - N/A   Clear
1:55 AM 53.6 °F 48.2 °F 82% 30.09 in 10.0 mi Calm Calm - N/A   Clear
2:15 AM 51.8 °F 48.2 °F 88% 30.09 in 10.0 mi Calm Calm - N/A   Clear
2:35 AM 53.6 °F 48.2 °F 82% 30.09 in 10.0 mi Calm Calm - N/A   Clear
2:55 AM 51.8 °F 48.2 °F 88% 30.09 in 10.0 mi Calm Calm - N/A   Clear
3:15 AM 51.8 °F 48.2 °F 88% 30.10 in 10.0 mi Calm Calm - N/A   Clear
3:35 AM 51.8 °F 48.2 °F 88% 30.10 in 10.0 mi Calm Calm - N/A   Clear
3:55 AM 51.8 °F 48.2 °F 88% 30.10 in 10.0 mi Calm Calm - N/A   Clear
4:15 AM 51.8 °F 48.2 °F 88% 30.10 in 10.0 mi Calm Calm - N/A   Clear
4:35 AM 51.8 °F 48.2 °F 88% 30.11 in 10.0 mi Calm Calm - N/A   Clear
4:55 AM 51.8 °F 46.4 °F 82% 30.11 in 10.0 mi Calm Calm - N/A   Clear
5:15 AM 51.8 °F 48.2 °F 88% 30.12 in 10.0 mi Calm Calm - N/A   Clear
5:35 AM 51.8 °F 48.2 °F 88% 30.13 in 10.0 mi Calm Calm - N/A   Clear
5:55 AM 50.0 °F 46.4 °F 87% 30.13 in 10.0 mi Calm Calm - N/A   Clear
6:15 AM 50.0 °F 46.4 °F 87% 30.14 in 2.5 mi Calm Calm - N/A   Clear
6:35 AM 50.0 °F 46.4 °F 87% 30.15 in 0.8 mi Calm Calm - N/A   Mist
6:45 AM 50.0 °F 48.2 °F 94% 30.15 in 10.0 mi Calm Calm - N/A   Clear
7:45 AM 59.0 °F 53.6 °F 82% 30.18 in 10.0 mi Calm Calm - N/A   Mostly Cloudy
8:45 AM 64.4 °F 55.4 °F 73% 30.19 in 10.0 mi Calm Calm - N/A   Scattered Clouds
9:45 AM 69.8 °F 53.6 °F 56% 30.20 in 10.0 mi North 3.5 mph - N/A   Scattered Clouds
10:45 AM 73.4 °F 50.0 °F 44% 30.19 in 10.0 mi East 6.9 mph - N/A   Scattered Clouds
11:45 AM 75.2 °F 50.0 °F 41% 30.19 in 10.0 mi ENE 5.8 mph - N/A   Clear
12:45 PM 75.2 °F 48.2 °F 38% 30.19 in 10.0 mi Calm Calm - N/A   Clear
1:45 PM 75.2 °F 50.0 °F 41% 30.18 in 10.0 mi Calm Calm - N/A   Partly Cloudy
2:45 PM 77.0 °F 48.2 °F 36% 30.17 in 10.0 mi Calm Calm - N/A   Clear
3:45 PM 78.8 °F 50.0 °F 36% 30.16 in 10.0 mi East 4.6 mph - N/A   Scattered Clouds
4:45 PM 78.8 °F 48.2 °F 34% 30.16 in 10.0 mi Calm Calm - N/A   Partly Cloudy
5:45 PM 77.0 °F 51.8 °F 41% 30.17 in 10.0 mi SSE 5.8 mph - N/A   Scattered Clouds
6:45 PM 73.4 °F 51.8 °F 47% 30.18 in 10.0 mi SSE 6.9 mph - N/A   Clear
7:45 PM 71.6 °F 51.8 °F 50% 30.19 in 10.0 mi SSE 6.9 mph - N/A   Clear
8:45 PM 68.0 °F 51.8 °F 56% 30.22 in 10.0 mi South 3.5 mph - N/A   Clear
9:45 PM 59.0 °F 55.4 °F 88% 30.25 in 10.0 mi Calm Calm - N/A   Clear
10:15 PM 59.0 °F 53.6 °F 82% 30.24 in 10.0 mi Calm Calm - N/A   Clear
10:35 PM 60.8 °F 53.6 °F 77% 30.25 in 10.0 mi Calm Calm - N/A   Clear
10:55 PM 57.2 °F 51.8 °F 82% 30.25 in 10.0 mi Calm Calm - N/A   Clear
11:15 PM 57.2 °F 53.6 °F 88% 30.25 in 10.0 mi Calm Calm - N/A   Clear
11:35 PM 57.2 °F 51.8 °F 82% 30.26 in 10.0 mi Calm Calm - N/A   Clear
11:55 PM 57.2 °F 51.8 °F 82% 30.26 in 10.0 mi Calm Calm - N/A   Clear